date,City,No. Stations,Air Quality,Index Value,Prominent Pollutant
2022-06-03,Bareilly,1.0,Poor,208,PM10
2022-06-04,Bareilly,1.0,Moderate,153,PM10
2022-06-05,Bareilly,1.0,Moderate,158,PM10
2022-06-06,Bareilly,1.0,Moderate,180,PM10
2022-06-07,Bareilly,1.0,Moderate,181,PM10
2022-06-08,Bareilly,1.0,Poor,242,PM10
2022-06-09,Bareilly,1.0,Moderate,185,PM10
2022-06-10,Bareilly,1.0,Satisfactory,100,PM2.5
2022-06-11,Bareilly,1.0,Satisfactory,96,PM2.5
2022-06-12,Bareilly,1.0,Satisfactory,74,PM10
2022-06-13,Bareilly,1.0,Moderate,120,PM2.5
2022-06-15,Bareilly,1.0,Moderate,146,PM10
2022-06-17,Bareilly,1.0,Moderate,118,PM10
2022-06-18,Bareilly,1.0,Moderate,104,PM10
2022-06-19,Bareilly,1.0,Satisfactory,90,PM10
2022-06-20,Bareilly,1.0,Moderate,149,PM2.5
2022-06-21,Bareilly,1.0,Moderate,113,PM10
2022-06-22,Bareilly,1.0,Moderate,103,PM10
2022-06-23,Bareilly,1.0,Moderate,165,PM2.5
2022-06-25,Bareilly,1.0,Moderate,160,PM10
2022-06-26,Bareilly,1.0,Satisfactory,89,PM10
2022-06-27,Bareilly,1.0,Satisfactory,92,PM10
2022-06-28,Bareilly,1.0,Satisfactory,91,PM10
2022-06-29,Bareilly,1.0,Satisfactory,94,PM10
2022-07-01,Bareilly,1.0,Good,29,PM2.5
2022-07-02,Bareilly,1.0,Satisfactory,73,PM10
2022-07-03,Bareilly,1.0,Good,50,PM2.5
2022-07-04,Bareilly,1.0,Moderate,106,PM2.5
2022-07-05,Bareilly,1.0,Satisfactory,65,PM10
2022-07-06,Bareilly,1.0,Satisfactory,59,PM10
2022-07-08,Bareilly,1.0,Satisfactory,69,PM10
2022-07-09,Bareilly,1.0,Good,40,PM10
2022-07-10,Bareilly,1.0,Good,33,PM10
2022-07-11,Bareilly,1.0,Satisfactory,57,PM10
2022-07-12,Bareilly,1.0,Satisfactory,63,PM10
2022-07-14,Bareilly,1.0,Satisfactory,63,PM10
2022-07-15,Bareilly,1.0,Satisfactory,51,PM10
2022-07-16,Bareilly,1.0,Good,45,PM10
2022-07-17,Bareilly,1.0,Good,44,PM10
2022-07-18,Bareilly,1.0,Satisfactory,54,PM10
2022-07-19,Bareilly,1.0,Satisfactory,55,PM10
2022-07-20,Bareilly,1.0,Good,44,PM10
2022-07-22,Bareilly,1.0,Good,33,PM10
2022-07-23,Bareilly,1.0,Good,34,PM10
2022-07-24,Bareilly,1.0,Good,20,O3
2022-07-25,Bareilly,1.0,Good,24,O3
2022-07-26,Bareilly,1.0,Good,30,PM10
2022-07-27,Bareilly,1.0,Good,37,PM10
2022-07-28,Bareilly,1.0,Good,42,PM10
2022-07-29,Bareilly,1.0,Good,45,PM10
2022-07-30,Bareilly,1.0,Good,40,PM10
2022-07-31,Bareilly,1.0,Good,31,PM10
2022-08-01,Bareilly,1.0,Satisfactory,61,PM10
2022-08-02,Bareilly,1.0,Satisfactory,64,PM10
2022-08-03,Bareilly,1.0,Good,39,PM10
2022-08-04,Bareilly,1.0,Good,28,PM10
2022-08-05,Bareilly,1.0,Good,32,PM10
2022-08-06,Bareilly,1.0,Good,50,PM10
2022-08-07,Bareilly,1.0,Good,36,PM10
2022-08-08,Bareilly,1.0,Good,43,PM10
2022-08-09,Bareilly,1.0,Good,44,PM10
2022-08-10,Bareilly,1.0,Good,42,PM10
2022-08-11,Bareilly,2.0,Good,40,PM10
2022-08-12,Bareilly,2.0,Good,45,PM10
2022-08-13,Bareilly,2.0,Good,50,"PM10, PM2.5"
2022-08-14,Bareilly,2.0,Satisfactory,59,"PM10, PM2.5"
2022-08-15,Bareilly,1.0,Good,31,CO
2022-08-16,Bareilly,2.0,Satisfactory,54,PM10
2022-08-17,Bareilly,2.0,Good,50,"PM10, PM2.5"
2022-08-18,Bareilly,2.0,Good,48,"PM10, PM2.5"
2022-08-19,Bareilly,2.0,Satisfactory,56,"PM10, PM2.5"
2022-08-20,Bareilly,1.0,Good,36,PM10
2022-08-21,Bareilly,2.0,Satisfactory,54,"PM10, PM2.5"
2022-08-22,Bareilly,2.0,Satisfactory,54,PM10
2022-08-23,Bareilly,2.0,Satisfactory,64,"PM10, PM2.5"
2022-08-25,Bareilly,2.0,Good,48,"PM10, PM2.5"
2022-08-26,Bareilly,2.0,Satisfactory,84,"PM10, PM2.5"
2022-08-27,Bareilly,1.0,Moderate,103,PM2.5
2022-08-28,Bareilly,1.0,Moderate,105,PM10
2022-08-29,Bareilly,1.0,Satisfactory,92,PM10
2022-08-30,Bareilly,2.0,Satisfactory,86,PM10
2022-08-31,Bareilly,2.0,Moderate,108,PM10
2022-09-01,Bareilly,2.0,Moderate,126,"PM10, PM2.5"
2022-09-02,Bareilly,2.0,Satisfactory,74,"PM10, PM2.5"
2022-09-03,Bareilly,2.0,Satisfactory,84,"PM10, PM2.5"
2022-09-04,Bareilly,2.0,Satisfactory,92,PM10
2022-09-05,Bareilly,2.0,Satisfactory,84,PM10
2022-09-06,Bareilly,2.0,Satisfactory,98,PM10
2022-09-07,Bareilly,2.0,Moderate,124,"PM10, PM2.5"
2022-09-08,Bareilly,2.0,Moderate,110,"PM10, PM2.5"
2022-09-09,Bareilly,2.0,Satisfactory,77,"PM10, PM2.5"
2022-09-10,Bareilly,2.0,Satisfactory,64,"PM10, PM2.5"
2022-09-11,Bareilly,2.0,Good,50,"PM10, PM2.5"
2022-09-12,Bareilly,2.0,Satisfactory,54,"PM10, PM2.5"
2022-09-13,Bareilly,2.0,Satisfactory,55,PM10
2022-09-14,Bareilly,2.0,Satisfactory,51,PM10
2022-09-15,Bareilly,1.0,Good,35,CO
2022-09-16,Bareilly,2.0,Good,34,"CO, PM10"
2022-09-18,Bareilly,2.0,Good,50,"PM10, PM2.5"
2022-09-19,Bareilly,2.0,Satisfactory,55,PM10
2022-09-20,Bareilly,2.0,Satisfactory,66,PM10
2022-09-21,Bareilly,1.0,Satisfactory,66,PM10
2022-09-22,Bareilly,2.0,Satisfactory,66,PM10
2022-09-23,Bareilly,2.0,Satisfactory,64,PM10
2022-09-24,Bareilly,2.0,Satisfactory,52,"PM10, PM2.5"
2022-09-25,Bareilly,2.0,Satisfactory,54,"PM10, PM2.5"
2022-09-26,Bareilly,2.0,Good,46,"PM10, PM2.5"
2022-09-27,Bareilly,2.0,Satisfactory,86,"PM10, PM2.5"
2022-09-28,Bareilly,2.0,Moderate,104,"PM10, PM2.5"
2022-09-29,Bareilly,2.0,Moderate,128,"PM10, PM2.5"
2022-09-30,Bareilly,2.0,Moderate,176,PM2.5
2022-10-01,Bareilly,2.0,Moderate,162,PM2.5
2022-10-02,Bareilly,2.0,Moderate,194,PM2.5
2022-10-03,Bareilly,2.0,Moderate,142,"PM10, PM2.5"
2022-10-04,Bareilly,2.0,Moderate,116,PM10
2022-10-05,Bareilly,2.0,Good,44,PM10
2022-10-06,Bareilly,2.0,Good,29,"CO, PM10"
2022-10-07,Bareilly,2.0,Good,34,CO
2022-10-08,Bareilly,2.0,Good,32,CO
2022-10-09,Bareilly,1.0,Good,18,CO
2022-10-10,Bareilly,1.0,Good,22,CO
2022-10-11,Bareilly,2.0,Good,33,CO
2022-10-12,Bareilly,2.0,Satisfactory,54,PM10
2022-10-13,Bareilly,2.0,Satisfactory,85,PM10
2022-10-14,Bareilly,2.0,Moderate,122,PM10
2022-10-15,Bareilly,2.0,Moderate,158,PM10
2022-10-16,Bareilly,1.0,Moderate,125,PM10
2022-10-17,Bareilly,2.0,Moderate,162,PM2.5
2022-10-18,Bareilly,2.0,Moderate,182,PM2.5
2022-10-19,Bareilly,2.0,Moderate,152,"PM10, PM2.5"
2022-10-20,Bareilly,2.0,Moderate,186,"PM10, PM2.5"
2022-10-21,Bareilly,2.0,Moderate,118,PM10
2022-10-22,Bareilly,2.0,Moderate,166,PM10
2022-10-23,Bareilly,2.0,Moderate,194,PM2.5
2022-10-24,Bareilly,2.0,Moderate,186,PM2.5
2022-10-25,Bareilly,2.0,Poor,266,PM2.5
2022-10-26,Bareilly,2.0,Poor,238,PM2.5
2022-10-27,Bareilly,2.0,Moderate,155,PM2.5
2022-10-28,Bareilly,2.0,Moderate,116,PM2.5
2022-10-29,Bareilly,2.0,Poor,222,PM2.5
2022-10-30,Bareilly,2.0,Moderate,142,PM10
2022-10-31,Bareilly,2.0,Moderate,158,PM10
2022-11-01,Bareilly,2.0,Moderate,164,"PM10, PM2.5"
2022-11-02,Bareilly,2.0,Moderate,128,PM10
2022-11-03,Bareilly,2.0,Poor,219,PM10
2022-11-04,Bareilly,2.0,Moderate,112,"PM10, PM2.5"
2022-11-05,Bareilly,2.0,Moderate,102,PM10
2022-11-06,Bareilly,2.0,Moderate,140,PM2.5
2022-11-07,Bareilly,2.0,Moderate,178,PM2.5
2022-11-08,Bareilly,2.0,Moderate,113,PM10
2022-11-09,Bareilly,2.0,Moderate,184,PM2.5
2022-11-10,Bareilly,2.0,Moderate,199,PM2.5
2022-11-11,Bareilly,2.0,Moderate,190,PM2.5
2022-11-12,Bareilly,2.0,Satisfactory,88,PM10
2022-11-13,Bareilly,2.0,Satisfactory,88,PM10
2022-11-14,Bareilly,1.0,Moderate,104,PM10
2022-11-15,Bareilly,2.0,Moderate,104,PM10
2022-11-16,Bareilly,2.0,Satisfactory,96,PM10
2022-11-17,Bareilly,2.0,Satisfactory,84,PM10
2022-11-18,Bareilly,2.0,Moderate,119,PM10
2022-11-19,Bareilly,2.0,Moderate,152,PM10
2022-11-20,Bareilly,2.0,Moderate,165,PM10
2022-11-21,Bareilly,2.0,Moderate,132,PM10
2022-11-22,Bareilly,2.0,Moderate,170,PM10
2022-11-23,Bareilly,2.0,Moderate,124,PM10
2022-11-24,Bareilly,2.0,Moderate,133,PM10
2022-11-25,Bareilly,2.0,Moderate,196,PM10
2022-11-26,Bareilly,2.0,Moderate,132,PM10
2022-11-27,Bareilly,2.0,Moderate,143,PM10
2022-11-28,Bareilly,2.0,Moderate,162,PM10
2022-11-29,Bareilly,2.0,Moderate,140,PM10
2022-11-30,Bareilly,2.0,Moderate,152,PM2.5
2022-12-01,Bareilly,2.0,Moderate,165,PM2.5
2022-12-02,Bareilly,2.0,Moderate,174,PM10
2022-12-03,Bareilly,2.0,Moderate,181,PM2.5
2022-12-04,Bareilly,2.0,Moderate,186,PM10
2022-12-05,Bareilly,2.0,Poor,208,PM2.5
2022-12-06,Bareilly,2.0,Moderate,132,PM10
2022-12-07,Bareilly,2.0,Moderate,137,PM10
2022-12-08,Bareilly,2.0,Moderate,156,PM10
2022-12-09,Bareilly,2.0,Moderate,174,PM2.5
2022-12-10,Bareilly,2.0,Moderate,184,"PM10, PM2.5"
2022-12-11,Bareilly,2.0,Moderate,179,PM2.5
2022-12-12,Bareilly,2.0,Moderate,114,PM10
2022-12-13,Bareilly,2.0,Moderate,103,PM10
2022-12-14,Bareilly,2.0,Moderate,108,PM10
2022-12-15,Bareilly,2.0,Satisfactory,94,PM10
2022-12-16,Bareilly,2.0,Moderate,128,PM10
2022-12-17,Bareilly,2.0,Poor,261,PM2.5
2022-12-18,Bareilly,2.0,Poor,225,"PM10, PM2.5"
2022-12-19,Bareilly,2.0,Moderate,183,PM2.5
2022-12-20,Bareilly,2.0,Moderate,154,PM2.5
2022-12-21,Bareilly,2.0,Moderate,122,PM10
2022-12-22,Bareilly,2.0,Moderate,113,PM10
2022-12-23,Bareilly,2.0,Moderate,128,PM10
2022-12-24,Bareilly,2.0,Moderate,136,PM10
2022-12-25,Bareilly,2.0,Moderate,138,PM10
2022-12-26,Bareilly,2.0,Moderate,136,PM10
2022-12-27,Bareilly,2.0,Moderate,118,PM10
2022-12-28,Bareilly,2.0,Moderate,160,"PM10, PM2.5"
2022-12-29,Bareilly,2.0,Moderate,133,"PM10, PM2.5"
2022-12-30,Bareilly,2.0,Moderate,188,PM2.5
2022-12-31,Bareilly,2.0,Moderate,156,PM2.5
2023-01-01,Bareilly,2.0,Moderate,118,PM2.5
2023-01-02,Bareilly,2.0,Satisfactory,90,PM10
2023-01-03,Bareilly,2.0,Satisfactory,92,PM2.5
2023-01-04,Bareilly,2.0,Moderate,104,PM10
2023-01-05,Bareilly,2.0,Moderate,106,PM10
2023-01-06,Bareilly,2.0,Moderate,106,"PM10, PM2.5"
2023-01-07,Bareilly,2.0,Moderate,112,"PM10, PM2.5"
2023-01-08,Bareilly,2.0,Moderate,110,PM10
2023-01-09,Bareilly,2.0,Moderate,133,PM2.5
2023-01-10,Bareilly,2.0,Moderate,119,PM2.5
2023-01-12,Bareilly,2.0,Moderate,105,PM10
2023-01-13,Bareilly,1.0,Moderate,105,PM2.5
2023-01-14,Bareilly,1.0,Moderate,142,PM2.5
2023-01-15,Bareilly,2.0,Moderate,102,PM10
2023-01-16,Bareilly,2.0,Satisfactory,94,PM10
2023-01-17,Bareilly,2.0,Moderate,133,PM2.5
2023-01-18,Bareilly,2.0,Moderate,126,PM10
2023-01-19,Bareilly,2.0,Moderate,128,"PM10, PM2.5"
2023-01-20,Bareilly,2.0,Moderate,180,PM2.5
2023-01-21,Bareilly,2.0,Moderate,131,PM10
2023-01-22,Bareilly,2.0,Moderate,138,"PM10, PM2.5"
2023-01-23,Bareilly,2.0,Moderate,116,"PM10, PM2.5"
2023-01-24,Bareilly,2.0,Satisfactory,66,PM10
2023-01-26,Bareilly,2.0,Satisfactory,54,PM10
2023-01-27,Bareilly,2.0,Satisfactory,73,PM10
2023-01-28,Bareilly,2.0,Satisfactory,88,PM10
2023-01-29,Bareilly,2.0,Satisfactory,82,PM10
2023-01-30,Bareilly,2.0,Satisfactory,78,"PM10, PM2.5"
2023-01-31,Bareilly,2.0,Satisfactory,53,PM10
2023-02-01,Bareilly,2.0,Satisfactory,52,PM10
2023-02-02,Bareilly,2.0,Satisfactory,77,PM10
2023-02-03,Bareilly,2.0,Satisfactory,93,PM10
2023-02-04,Bareilly,2.0,Moderate,116,PM10
2023-02-05,Bareilly,2.0,Satisfactory,89,PM10
2023-02-06,Bareilly,2.0,Moderate,102,"PM10, PM2.5"
2023-02-07,Bareilly,2.0,Moderate,136,"PM10, PM2.5"
2023-02-08,Bareilly,2.0,Satisfactory,68,PM10
2023-02-09,Bareilly,2.0,Satisfactory,73,PM10
2023-02-10,Bareilly,2.0,Moderate,102,PM10
2023-02-11,Bareilly,2.0,Satisfactory,92,PM10
2023-02-12,Bareilly,2.0,Satisfactory,55,PM10
2023-02-13,Bareilly,1.0,Satisfactory,56,PM10
2023-02-14,Bareilly,2.0,Satisfactory,74,PM10
2023-02-15,Bareilly,2.0,Moderate,108,PM10
2023-02-16,Bareilly,2.0,Moderate,102,PM10
2023-02-17,Bareilly,2.0,Moderate,114,PM10
2023-02-18,Bareilly,2.0,Moderate,119,PM10
2023-02-19,Bareilly,2.0,Moderate,122,PM10
2023-02-20,Bareilly,2.0,Moderate,128,PM10
2023-02-21,Bareilly,2.0,Satisfactory,100,PM10
2023-02-22,Bareilly,2.0,Satisfactory,93,PM10
2023-02-23,Bareilly,1.0,Satisfactory,78,PM10
2023-02-24,Bareilly,2.0,Satisfactory,72,PM10
2023-02-25,Bareilly,2.0,Satisfactory,81,PM10
2023-02-26,Bareilly,2.0,Moderate,116,PM10
2023-02-27,Bareilly,2.0,Moderate,130,PM10
2023-02-28,Bareilly,2.0,Moderate,108,PM10
2023-03-01,Bareilly,2.0,Satisfactory,91,PM10
2023-03-02,Bareilly,2.0,Satisfactory,68,PM10
2023-03-03,Bareilly,2.0,Satisfactory,63,PM10
2023-03-04,Bareilly,2.0,Satisfactory,62,PM10
2023-03-05,Bareilly,2.0,Satisfactory,65,PM10
2023-03-06,Bareilly,2.0,Satisfactory,67,PM10
2023-03-07,Bareilly,2.0,Satisfactory,62,PM10
2023-03-08,Bareilly,2.0,Moderate,104,PM10
2023-03-09,Bareilly,1.0,Satisfactory,57,PM10
2023-03-10,Bareilly,2.0,Satisfactory,74,PM10
2023-03-11,Bareilly,2.0,Satisfactory,84,PM10
2023-03-12,Bareilly,2.0,Satisfactory,89,PM10
2023-03-13,Bareilly,2.0,Moderate,108,PM10
2023-03-14,Bareilly,2.0,Satisfactory,94,PM10
2023-03-15,Bareilly,2.0,Satisfactory,73,PM10
2023-03-16,Bareilly,2.0,Satisfactory,98,PM10
2023-03-17,Bareilly,2.0,Satisfactory,67,PM10
2023-03-18,Bareilly,2.0,Satisfactory,80,PM10
2023-03-19,Bareilly,2.0,Satisfactory,68,PM10
2023-03-20,Bareilly,2.0,Satisfactory,66,PM10
2023-03-22,Bareilly,2.0,Satisfactory,58,PM10
2023-03-23,Bareilly,2.0,Satisfactory,54,PM10
2023-03-24,Bareilly,2.0,Satisfactory,87,"PM10, PM2.5"
2023-03-25,Bareilly,2.0,Satisfactory,52,PM10
2023-03-26,Bareilly,2.0,Satisfactory,70,PM10
2023-03-27,Bareilly,2.0,Satisfactory,76,PM10
2023-03-28,Bareilly,2.0,Satisfactory,70,PM2.5
2023-03-29,Bareilly,2.0,Moderate,106,"PM10, PM2.5"
2023-03-30,Bareilly,2.0,Satisfactory,99,PM10
2023-04-02,Bareilly,1.0,Good,35,CO
2023-04-03,Bareilly,1.0,Satisfactory,59,PM10
2023-04-05,Bareilly,2.0,Satisfactory,66,PM10
2023-04-06,Bareilly,2.0,Moderate,118,PM10
2023-04-07,Bareilly,2.0,Satisfactory,54,PM10
2023-04-08,Bareilly,2.0,Satisfactory,87,PM10
2023-04-09,Bareilly,2.0,Satisfactory,90,PM10
2023-04-10,Bareilly,2.0,Satisfactory,83,PM10
2023-04-11,Bareilly,1.0,Satisfactory,89,PM10
2023-04-12,Bareilly,1.0,Satisfactory,91,PM10
2023-04-13,Bareilly,2.0,Moderate,120,PM10
2023-04-14,Bareilly,2.0,Moderate,125,PM10
2023-04-15,Bareilly,2.0,Moderate,127,PM10
2023-04-16,Bareilly,2.0,Moderate,110,PM10
2023-04-17,Bareilly,2.0,Moderate,140,PM10
2023-04-18,Bareilly,2.0,Moderate,111,PM10
2023-04-19,Bareilly,2.0,Moderate,124,PM10
2023-04-20,Bareilly,2.0,Moderate,135,PM10
2023-04-21,Bareilly,2.0,Good,49,PM10
2023-04-22,Bareilly,2.0,Satisfactory,67,PM10
2023-04-23,Bareilly,2.0,Satisfactory,96,PM10
2023-04-24,Bareilly,2.0,Satisfactory,78,PM10
2023-04-25,Bareilly,1.0,Satisfactory,63,PM10
2023-04-26,Bareilly,2.0,Satisfactory,89,PM10
2023-04-27,Bareilly,2.0,Moderate,114,PM10
2023-04-28,Bareilly,2.0,Satisfactory,68,PM10
2023-04-29,Bareilly,2.0,Satisfactory,94,PM10
2023-05-01,Bareilly,2.0,Good,42,"CO, PM10"
2023-05-03,Bareilly,2.0,Good,30,CO
2023-05-04,Bareilly,2.0,Good,38,"CO, PM10"
2023-05-05,Bareilly,2.0,Satisfactory,64,PM10
2023-05-06,Bareilly,2.0,Satisfactory,78,PM10
2023-05-07,Bareilly,2.0,Satisfactory,67,PM10
2023-05-08,Bareilly,2.0,Satisfactory,76,PM10
2023-05-09,Bareilly,2.0,Satisfactory,55,PM10
2023-05-10,Bareilly,2.0,Satisfactory,76,PM10
2023-05-11,Bareilly,2.0,Satisfactory,78,PM10
2023-05-12,Bareilly,2.0,Moderate,112,PM10
2023-05-13,Bareilly,2.0,Satisfactory,89,PM10
2023-05-14,Bareilly,2.0,Moderate,106,PM10
2023-05-15,Bareilly,2.0,Moderate,102,PM10
2023-05-16,Bareilly,2.0,Moderate,145,PM10
2023-05-17,Bareilly,2.0,Moderate,104,"PM10, PM2.5"
2023-05-19,Bareilly,2.0,Satisfactory,53,PM10
2023-05-20,Bareilly,2.0,Satisfactory,66,PM10
2023-05-21,Bareilly,2.0,Moderate,118,O3
2023-05-22,Bareilly,2.0,Satisfactory,84,PM10
2023-05-23,Bareilly,2.0,Moderate,104,PM10
2023-05-27,Bareilly,2.0,Good,42,PM10
2023-05-28,Bareilly,2.0,Good,50,PM10
2023-05-29,Bareilly,2.0,Satisfactory,61,PM10
2023-05-30,Bareilly,2.0,Satisfactory,58,PM10
2023-05-31,Bareilly,2.0,Satisfactory,60,PM10
2023-06-01,Bareilly,2.0,Satisfactory,56,PM10
2023-06-02,Bareilly,2.0,Satisfactory,58,PM10
2023-06-03,Bareilly,2.0,Satisfactory,52,PM10
2023-06-04,Bareilly,2.0,Satisfactory,76,PM10
2023-06-05,Bareilly,2.0,Satisfactory,76,PM10
2023-06-06,Bareilly,2.0,Satisfactory,72,PM10
2023-06-07,Bareilly,2.0,Satisfactory,70,PM10
2023-06-08,Bareilly,2.0,Satisfactory,79,PM10
2023-06-09,Bareilly,2.0,Satisfactory,81,PM10
2023-06-10,Bareilly,2.0,Satisfactory,80,PM10
2023-06-11,Bareilly,2.0,Satisfactory,84,PM10
2023-06-12,Bareilly,2.0,Satisfactory,94,PM10
2023-06-13,Bareilly,2.0,Satisfactory,91,PM10
2023-06-14,Bareilly,2.0,Moderate,111,PM10
2023-06-15,Bareilly,1.0,Satisfactory,83,PM10
2023-06-16,Bareilly,2.0,Satisfactory,56,PM10
2023-06-17,Bareilly,2.0,Satisfactory,80,PM10
2023-06-18,Bareilly,2.0,Satisfactory,58,PM10
2023-06-19,Bareilly,2.0,Satisfactory,57,PM10
2023-06-20,Bareilly,2.0,Satisfactory,54,PM10
2023-06-21,Bareilly,2.0,Good,36,O3
2023-06-22,Bareilly,1.0,Good,40,O3
2023-06-24,Bareilly,1.0,Good,39,O3
2023-06-26,Bareilly,1.0,Good,36,O3
2023-06-27,Bareilly,1.0,Good,37,O3
2023-06-28,Bareilly,2.0,Good,32,O3
2023-06-29,Bareilly,2.0,Good,25,SO2
2023-06-30,Bareilly,2.0,Good,28,O3
2023-07-01,Bareilly,2.0,Good,25,SO2
2023-07-02,Bareilly,2.0,Good,37,"PM10, SO2"
2023-07-03,Bareilly,2.0,Good,38,"O3, PM2.5"
2023-07-04,Bareilly,2.0,Good,49,"O3, PM10"
2023-07-05,Bareilly,2.0,Good,42,"O3, PM2.5"
2023-07-06,Bareilly,2.0,Good,42,"CO, PM2.5"
2023-07-07,Bareilly,2.0,Good,35,"PM2.5, SO2"
2023-07-08,Bareilly,2.0,Good,25,SO2
2023-07-09,Bareilly,2.0,Satisfactory,82,PM10
2023-07-10,Bareilly,2.0,Good,42,"O3, PM2.5"
2023-07-11,Bareilly,2.0,Good,25,SO2
2023-07-12,Bareilly,2.0,Good,38,"PM2.5, SO2"
2023-07-13,Bareilly,2.0,Good,27,CO
2023-07-14,Bareilly,1.0,Good,26,CO
2023-07-15,Bareilly,2.0,Good,44,"CO, PM2.5"
2023-07-16,Bareilly,2.0,Good,45,"PM2.5, SO2"
2023-07-17,Bareilly,2.0,Good,50,"PM10, PM2.5"
2023-07-18,Bareilly,2.0,Good,47,"PM10, SO2"
2023-07-19,Bareilly,2.0,Good,36,"PM2.5, SO2"
2023-07-20,Bareilly,2.0,Satisfactory,52,"O3, PM10"
2023-07-21,Bareilly,2.0,Satisfactory,52,PM10
2023-07-22,Bareilly,2.0,Good,27,PM10
2023-07-23,Bareilly,1.0,Good,26,SO2
2023-07-24,Bareilly,1.0,Good,26,SO2
2023-07-25,Bareilly,1.0,Good,26,SO2
2023-07-26,Bareilly,2.0,Good,38,"CO, PM10"
2023-07-27,Bareilly,2.0,Good,46,"CO, PM2.5"
2023-07-28,Bareilly,2.0,Good,29,CO
2023-07-29,Bareilly,1.0,Good,38,CO
2023-07-30,Bareilly,1.0,Good,26,SO2
2023-07-31,Bareilly,2.0,Good,44,PM10
2023-08-01,Bareilly,2.0,Satisfactory,56,PM10
2023-08-02,Bareilly,2.0,Satisfactory,58,"CO, PM10"
2023-08-03,Bareilly,2.0,Good,42,"CO, PM10"
2023-08-04,Bareilly,2.0,Good,32,PM10
2023-08-05,Bareilly,2.0,Good,32,PM10
2023-08-06,Bareilly,1.0,Good,35,SO2
2023-08-07,Bareilly,2.0,Good,42,"PM10, SO2"
2023-08-08,Bareilly,2.0,Satisfactory,64,PM10
2023-08-09,Bareilly,2.0,Satisfactory,68,PM10
2023-08-10,Bareilly,2.0,Satisfactory,70,PM10
2023-08-11,Bareilly,2.0,Satisfactory,54,PM10
2023-08-12,Bareilly,2.0,Satisfactory,76,PM10
2023-08-13,Bareilly,2.0,Satisfactory,55,PM10
2023-08-14,Bareilly,2.0,Good,42,PM10
2023-08-15,Bareilly,1.0,Good,38,PM10
2023-08-16,Bareilly,2.0,Satisfactory,54,PM10
2023-08-17,Bareilly,2.0,Satisfactory,63,PM10
2023-08-18,Bareilly,2.0,Satisfactory,54,PM10
2023-08-19,Bareilly,2.0,Good,48,PM10
2023-08-20,Bareilly,1.0,Good,30,SO2
2023-08-21,Bareilly,2.0,Good,34,"CO, PM2.5"
2023-08-22,Bareilly,2.0,Good,42,"CO, PM10"
2023-08-23,Bareilly,1.0,Good,31,CO
2023-08-24,Bareilly,2.0,Good,31,CO
2023-08-25,Bareilly,2.0,Satisfactory,53,PM10
2023-08-26,Bareilly,1.0,Satisfactory,61,PM10
2023-08-27,Bareilly,2.0,Satisfactory,86,PM10
2023-08-28,Bareilly,2.0,Satisfactory,80,PM10
2023-08-29,Bareilly,1.0,Satisfactory,62,PM10
2023-08-30,Bareilly,2.0,Satisfactory,70,PM10
2023-08-31,Bareilly,2.0,Satisfactory,80,PM10
2023-09-01,Bareilly,1.0,Satisfactory,74,PM10
2023-09-02,Bareilly,2.0,Satisfactory,72,PM10
2023-09-03,Bareilly,2.0,Satisfactory,77,PM10
2023-09-04,Bareilly,2.0,Satisfactory,74,PM10
2023-09-05,Bareilly,2.0,Good,48,PM10
2023-09-06,Bareilly,2.0,Good,38,CO
2023-09-07,Bareilly,2.0,Good,40,PM10
2023-09-08,Bareilly,2.0,Good,36,CO
2023-09-09,Bareilly,2.0,Good,33,"CO, SO2"
2023-09-10,Bareilly,2.0,Good,33,"CO, SO2"
2023-09-11,Bareilly,1.0,Good,31,SO2
2023-09-12,Bareilly,2.0,Good,40,CO
2023-09-13,Bareilly,2.0,Good,48,PM10
2023-09-14,Bareilly,2.0,Satisfactory,62,PM10
2023-09-15,Bareilly,2.0,Good,44,"PM10, SO2"
2023-09-16,Bareilly,1.0,Good,31,SO2
2023-09-18,Bareilly,2.0,Good,33,"O3, SO2"
2023-09-19,Bareilly,2.0,Good,39,"CO, PM10"
2023-09-20,Bareilly,1.0,Good,38,PM10
2023-09-21,Bareilly,1.0,Good,33,PM10
2023-09-22,Bareilly,1.0,Satisfactory,54,PM10
2023-09-23,Bareilly,2.0,Satisfactory,52,"PM10, SO2"
2023-09-24,Bareilly,1.0,Good,33,CO
2023-09-25,Bareilly,1.0,Good,33,PM10
2023-09-26,Bareilly,1.0,Good,38,PM10
2023-09-27,Bareilly,2.0,Satisfactory,70,PM10
2023-09-28,Bareilly,2.0,Satisfactory,78,PM10
2023-09-29,Bareilly,2.0,Satisfactory,86,PM10
2023-09-30,Bareilly,2.0,Satisfactory,88,PM10
2023-10-01,Bareilly,1.0,Satisfactory,56,PM10
2023-10-02,Bareilly,2.0,Satisfactory,86,PM10
2023-10-03,Bareilly,2.0,Satisfactory,76,PM10
2023-10-04,Bareilly,1.0,Good,48,PM10
2023-10-05,Bareilly,2.0,Satisfactory,95,PM10
2023-10-06,Bareilly,2.0,Moderate,110,PM10
2023-10-07,Bareilly,2.0,Moderate,120,PM10
2023-10-08,Bareilly,2.0,Moderate,123,PM10
2023-10-09,Bareilly,2.0,Moderate,108,PM10
2023-10-10,Bareilly,2.0,Moderate,117,PM10
2023-10-11,Bareilly,2.0,Satisfactory,98,PM10
2023-10-12,Bareilly,2.0,Satisfactory,82,PM10
2023-10-13,Bareilly,2.0,Moderate,120,PM10
2023-10-14,Bareilly,2.0,Moderate,122,PM10
2023-10-15,Bareilly,2.0,Moderate,132,PM10
2023-10-16,Bareilly,2.0,Moderate,118,PM10
2023-10-17,Bareilly,2.0,Good,38,CO
2023-10-18,Bareilly,1.0,Good,44,PM10
2023-10-19,Bareilly,1.0,Satisfactory,53,PM10
2023-10-20,Bareilly,2.0,Satisfactory,84,PM10
2023-10-21,Bareilly,2.0,Moderate,118,PM10
2023-10-22,Bareilly,2.0,Moderate,108,PM10
2023-10-23,Bareilly,2.0,Satisfactory,100,PM10
2023-10-24,Bareilly,1.0,Satisfactory,84,PM10
2023-10-25,Bareilly,1.0,Satisfactory,96,PM10
2023-10-26,Bareilly,2.0,Satisfactory,98,"PM10, PM2.5"
2023-10-27,Bareilly,2.0,Moderate,108,PM10
2023-10-28,Bareilly,2.0,Moderate,121,PM10
2023-10-29,Bareilly,1.0,Moderate,102,PM10
2023-10-30,Bareilly,1.0,Moderate,111,PM10
2023-10-31,Bareilly,1.0,Moderate,113,PM10
2023-11-01,Bareilly,1.0,Satisfactory,85,PM10
2023-11-02,Bareilly,2.0,Moderate,178,PM10
2023-11-03,Bareilly,2.0,Moderate,125,"PM10, PM2.5"
2023-11-04,Bareilly,2.0,Moderate,124,PM10
2023-11-05,Bareilly,2.0,Moderate,170,PM2.5
2023-11-06,Bareilly,2.0,Moderate,136,PM10
2023-11-07,Bareilly,2.0,Moderate,162,"PM10, PM2.5"
2023-11-08,Bareilly,2.0,Poor,204,PM2.5
2023-11-09,Bareilly,2.0,Moderate,172,PM2.5
2023-11-10,Bareilly,2.0,Moderate,186,PM2.5
2023-11-11,Bareilly,2.0,Satisfactory,83,PM10
2023-11-12,Bareilly,2.0,Satisfactory,91,PM10
2023-11-13,Bareilly,1.0,Poor,212,PM2.5
2023-11-14,Bareilly,2.0,Moderate,173,PM2.5
2023-11-15,Bareilly,2.0,Moderate,152,PM2.5
2023-11-16,Bareilly,2.0,Moderate,156,PM2.5
2023-11-17,Bareilly,2.0,Satisfactory,90,"PM10, PM2.5"
2023-11-18,Bareilly,2.0,Moderate,112,"PM10, PM2.5"
2023-11-19,Bareilly,2.0,Moderate,112,"PM10, PM2.5"
2023-11-20,Bareilly,2.0,Moderate,114,"PM10, PM2.5"
2023-11-21,Bareilly,2.0,Moderate,146,PM2.5
2023-11-22,Bareilly,2.0,Moderate,186,PM2.5
2023-11-23,Bareilly,1.0,Poor,214,PM2.5
2023-11-24,Bareilly,2.0,Moderate,166,PM2.5
2023-11-25,Bareilly,2.0,Moderate,168,PM10
2023-11-26,Bareilly,1.0,Moderate,162,PM2.5
2023-11-27,Bareilly,2.0,Moderate,116,PM10
2023-11-28,Bareilly,1.0,Moderate,115,PM10
2023-11-29,Bareilly,2.0,Moderate,114,"PM10, PM2.5"
2023-11-30,Bareilly,1.0,Moderate,160,PM2.5
2023-12-01,Bareilly,2.0,Poor,208,PM2.5
2023-12-02,Bareilly,2.0,Moderate,132,PM2.5
2023-12-03,Bareilly,2.0,Satisfactory,92,"PM10, PM2.5"
2023-12-04,Bareilly,2.0,Satisfactory,67,PM10
2023-12-05,Bareilly,2.0,Satisfactory,73,PM10
2023-12-06,Bareilly,2.0,Satisfactory,91,"PM10, PM2.5"
2023-12-07,Bareilly,1.0,Moderate,105,PM10
2023-12-08,Bareilly,2.0,Moderate,124,PM2.5
2023-12-09,Bareilly,1.0,Moderate,137,PM2.5
2023-12-10,Bareilly,2.0,Moderate,117,"PM10, PM2.5"
2023-12-11,Bareilly,2.0,Moderate,168,PM2.5
2023-12-12,Bareilly,2.0,Poor,210,"PM10, PM2.5"
2023-12-13,Bareilly,2.0,Moderate,102,"PM10, PM2.5"
2023-12-14,Bareilly,2.0,Satisfactory,92,"PM10, PM2.5"
2023-12-15,Bareilly,2.0,Satisfactory,86,"PM10, PM2.5"
2023-12-16,Bareilly,2.0,Moderate,106,"PM10, PM2.5"
2023-12-17,Bareilly,2.0,Satisfactory,88,PM10
2023-12-18,Bareilly,2.0,Satisfactory,88,"PM10, PM2.5"
2023-12-19,Bareilly,2.0,Satisfactory,74,"PM10, PM2.5"
2023-12-20,Bareilly,2.0,Moderate,146,"PM10, PM2.5"
2023-12-21,Bareilly,2.0,Moderate,137,PM2.5
2023-12-22,Bareilly,2.0,Satisfactory,94,"PM10, PM2.5"
2023-12-23,Bareilly,2.0,Satisfactory,79,"PM10, PM2.5"
2023-12-24,Bareilly,2.0,Satisfactory,60,PM10
2023-12-25,Bareilly,1.0,Satisfactory,73,PM2.5
2023-12-26,Bareilly,2.0,Moderate,110,"PM10, PM2.5"
2023-12-27,Bareilly,2.0,Moderate,104,"PM10, PM2.5"
2023-12-28,Bareilly,1.0,Moderate,101,PM10